Weather Roundup
Issued by NWS Chicago, IL

Home | Current Version | Previous Version | Graphics & Text | Print | Product List | Glossary On
Versions: 1 2 3 4 5 6 7 8 9 10 11 12 13 14 15 16 17 18 19 20 21 22 23 24 25 26 27 28 29 30 31 32 33 34 35 36 37 38 39 40 41 42 43 44 45 46 47 48 49 50
771
NZUS59 KLOT 231409
HRRLOT

CHICAGO AREA WEATHER ROUNDUP
NATIONAL WEATHER SERVICE CHICAGO/ROMEOVILLE IL
900 AM CDT SAT SEP 23 2017

NOTE: "FAIR" INDICATES FEW OR NO CLOUDS BELOW 12,000 FEET WITH NO
SIGNIFICANT WEATHER AND/OR OBSTRUCTIONS TO VISIBILITY.

* THESE STATIONS ARE NOT UNDER NWS QUALITY CONTROL. THEY ALSO MAY NOT
  REPORT WEATHER SUCH AS PRECIPITATION OR FOG.

ILZ005-006-012>014-019>023-231500-
NORTHEAST ILLINOIS

CITY           SKY/WX    TMP DP  RH WIND       PRES   REMARKS
OHARE          MOSUNNY   81  66  60 S5        30.10R HX  83
MIDWAY         SUNNY     81  67  62 S5        30.10R HX  83
AURORA         SUNNY     76  69  79 SE5       30.11R
LANSING*       SUNNY     77  70  78 CALM      30.12R
JOLIET*        SUNNY     78  69  74 CALM      30.11R HX  80
WAUKEGAN       SUNNY     80  69  69 S3        30.09S HX  83
DUPAGE AIRPORT SUNNY     77  69  76 S6        30.10R
WHEELING       SUNNY     81  69  67 S6        30.11R HX  84
MORRIS*        SUNNY     76  68  78 SE3       30.09S
LEWIS AIRPORT* SUNNY     77  68  74 S3        30.11R
NORTHERLY ISL    N/A     77  67  71 SE3         N/A
$$

WIZ051-052-058>065-066-070>072-231500-
SOUTHEAST WISCONSIN

CITY           SKY/WX    TMP DP  RH WIND       PRES   REMARKS
MILWAUKEE      MOSUNNY   80  66  62 SW6       30.09R HX  82
KENOSHA*       SUNNY     80  66  62 S6        30.10R HX  82
RACINE*        SUNNY     80  68  66 S6        30.11R HX  83
WAUKESHA       SUNNY     75  64  69 SW6       30.11R
WEST BEND        N/A     81  66  61 SW5       30.09S HX  83
$$

INZ001>003-010>013-019-020-231500-
NORTHWEST INDIANA

CITY           SKY/WX    TMP DP  RH WIND       PRES   REMARKS
GARY*          SUNNY     79  68  69 SE5       30.12R HX  81
MICHIGAN CITY* NOT AVBL
RENSSELAER*    NOT AVBL
VALPARAISO     SUNNY     78  71  79 CALM      30.13R HX  80
$$

LMZ740>746-231500-
SOUTHERN LAKE MICHIGAN

STATION/POSITION TIME  SKY/WX   TEMP WIND        PRES    VSBY
                                AIR  DIR/SP/G
                 (UTC)          (F)  (DEG/KT/KT) (MB)    (MI)
HARRISON CRIB    1340            76  150/ 11/ 12   N/A
BURNHAM HARBOR   1400            76                N/A
CALUMET HARBOR   1348            78   90/  3/  4 1018.8R
BURNS HARBOR     1340            78  170/  3/  5 1020.0R
MICHIGAN CITY    1340            76  130/  3/  5   N/A
$$

ABBREVIATIONS USED IN REMARKS
   TC - TEMPERATURE IN CELSIUS
  WCI - WIND CHILL INDEX
   HX - HEAT INDEX
  VSB - VISIBILITY
$$




USA.gov is the U.S. government's official web portal to all federal, state and local government web resources and services.